Preview of NWS' New Version of Forecast
This preview is not operational and should not be used for support decisions.

Regional Weather Roundup (RWR)

Issued by National Weather Service (NWS)

                            
000
ASUS43 KBIS 170610
RWRND 

NORTH DAKOTA REGIONAL WEATHER ROUNDUP
NATIONAL WEATHER SERVICE BISMARCK ND
1200 AM CST SUN FEB 17 2019

NOTE: "FAIR" INDICATES FEW OR NO CLOUDS BELOW 12,000 FEET WITH NO
SIGNIFICANT WEATHER AND/OR OBSTRUCTIONS TO VISIBILITY.


NDZ001>003-009>011-017-170700-
NORTHWEST NORTH DAKOTA
  
CITY           SKY/WX    TMP DP  RH WIND       PRES   REMARKS
WILLISTON      FLURRIES   8   2  76 NE6       30.00R WCI  -2          
6HR MIN TEMP:   8; 6HR MAX TEMP:  10; 6HR PCP: TRACE;                

MINOT          CLOUDY     8   2  76 E9        30.03R WCI  -5          
MINOT AFB      CLOUDY     7   1  79 E10       30.03R WCI  -8          
$$
 
NDZ018>021-031>035-040>046-170700-
SOUTHWEST NORTH DAKOTA
  
CITY           SKY/WX    TMP DP  RH WIND       PRES   REMARKS
BISMARCK       LGT SNOW   7   3  84 E13       30.00R FOG     WCI  -9  
6HR MIN TEMP:   7; 6HR MAX TEMP:  10; 6HR PCP:  0.01;                

DICKINSON      LGT SNOW   7   2  80 NE7       29.88R VSB 1   WCI  -5  
GARRISON         N/A      6   2  83 E14       29.98R WCI -11          
6HR MIN TEMP:   6; 6HR MAX TEMP:   8; 6HR PCP:  0.04;                

HETTINGER ARPT LGT SNOW   7   3  84 N6        29.87R FOG     WCI  -3  
$$
 
NDZ004>008-012>016-024-026-027-054-170700-
NORTHEAST NORTH DAKOTA
  
CITY           SKY/WX    TMP DP  RH WIND       PRES   REMARKS
GRAND FORKS    MOCLDY    -8 -12  83 NW8       30.12R WCI -24          
GRND FRKS AFB  CLEAR     -5 -10  79 N8        30.12R WCI -20          
DEVILS LAKE    CLOUDY     4  -1  80 NE7       30.07R WCI  -8          
$$
 
NDZ022-023-025-028>030-036>039-047>053-170700-
SOUTHEAST NORTH DAKOTA
  
CITY           SKY/WX    TMP DP  RH WIND       PRES   REMARKS
FARGO          CLOUDY     8   5  87 NW9       30.06F WCI  -5          
6HR MIN TEMP:   8; 6HR MAX TEMP:  14;                                

JAMESTOWN      CLOUDY     8   4  83 E12       30.00F WCI  -7          
$$